TimeEST,TemperatureF,Dew PointF,Humidity,Sea Level PressureIn,VisibilityMPH,Wind Direction,Wind SpeedMPH,Gust SpeedMPH,PrecipitationIn,Events,Conditions,WindDirDegrees,DateUTC
12:15 AM,30.2,10.4,44,30.01,10.0,WSW,5.8,-,N/A,,Mostly Cloudy,240,2012-02-09 05:15:00
12:55 AM,30.2,10.4,44,30.00,10.0,SW,5.8,-,N/A,,Mostly Cloudy,230,2012-02-09 05:55:00
1:15 AM,30.2,8.6,40,29.99,10.0,Calm,Calm,-,N/A,,Mostly Cloudy,0,2012-02-09 06:15:00
1:35 AM,28.4,12.2,51,29.98,10.0,Calm,Calm,-,N/A,,Overcast,0,2012-02-09 06:35:00
1:55 AM,30.2,10.4,44,29.98,10.0,SW,3.5,-,N/A,,Mostly Cloudy,230,2012-02-09 06:55:00
2:15 AM,28.4,14.0,55,29.97,10.0,SW,3.5,-,N/A,,Scattered Clouds,230,2012-02-09 07:15:00
2:35 AM,28.4,15.8,59,29.96,10.0,WSW,4.6,-,N/A,,Mostly Cloudy,240,2012-02-09 07:35:00
3:15 AM,28.4,10.4,47,29.96,10.0,WSW,4.6,-,N/A,,Partly Cloudy,240,2012-02-09 08:15:00
3:35 AM,26.6,12.2,55,29.96,10.0,SW,3.5,-,N/A,,Scattered Clouds,220,2012-02-09 08:35:00
3:55 AM,26.6,12.2,55,29.96,10.0,WSW,3.5,-,N/A,,Overcast,250,2012-02-09 08:55:00
4:15 AM,26.6,12.2,55,29.96,10.0,SW,5.8,-,N/A,,Overcast,230,2012-02-09 09:15:00
4:35 AM,26.6,12.2,55,29.96,10.0,WSW,3.5,-,N/A,,Scattered Clouds,240,2012-02-09 09:35:00
4:55 AM,24.8,12.2,59,29.96,10.0,WSW,5.8,-,N/A,,Clear,240,2012-02-09 09:55:00
5:15 AM,26.6,12.2,55,29.96,10.0,WSW,8.1,-,N/A,,Clear,240,2012-02-09 10:15:00
5:55 AM,24.8,8.6,50,29.96,10.0,WSW,6.9,-,N/A,,Clear,240,2012-02-09 10:55:00
6:15 AM,24.8,10.4,54,29.96,10.0,WSW,8.1,-,N/A,,Clear,240,2012-02-09 11:15:00
6:35 AM,24.8,10.4,54,29.97,10.0,WSW,4.6,-,N/A,,Clear,240,2012-02-09 11:35:00
6:55 AM,24.8,8.6,50,29.97,10.0,WSW,5.8,-,N/A,,Clear,250,2012-02-09 11:55:00
7:15 AM,24.8,10.4,54,29.98,10.0,WSW,8.1,-,N/A,,Clear,250,2012-02-09 12:15:00
7:35 AM,26.6,8.6,47,29.98,10.0,WSW,8.1,-,N/A,,Clear,250,2012-02-09 12:35:00
8:15 AM,28.4,8.6,43,30.00,10.0,SW,6.9,-,N/A,,Clear,230,2012-02-09 13:15:00
8:35 AM,28.4,10.4,47,30.00,10.0,WSW,8.1,-,N/A,,Clear,240,2012-02-09 13:35:00
8:55 AM,30.2,10.4,44,30.00,10.0,SSW,8.1,-,N/A,,Clear,200,2012-02-09 13:55:00
9:15 AM,30.2,10.4,44,30.00,10.0,WSW,8.1,-,N/A,,Clear,240,2012-02-09 14:15:00
9:35 AM,32.0,10.4,41,30.00,10.0,WSW,9.2,-,N/A,,Clear,240,2012-02-09 14:35:00
9:55 AM,33.8,10.4,38,30.00,10.0,WNW,8.1,-,N/A,,Clear,290,2012-02-09 14:55:00
10:15 AM,33.8,10.4,38,29.99,10.0,West,8.1,-,N/A,,Clear,270,2012-02-09 15:15:00
10:35 AM,35.6,10.4,35,29.99,10.0,West,10.4,17.3,N/A,,Clear,260,2012-02-09 15:35:00
10:55 AM,35.6,12.2,38,29.99,10.0,WNW,9.2,-,N/A,,Clear,290,2012-02-09 15:55:00
11:15 AM,35.6,12.2,38,29.98,10.0,West,12.7,17.3,N/A,,Clear,260,2012-02-09 16:15:00
11:35 AM,35.6,10.4,35,29.97,10.0,West,8.1,-,N/A,,Clear,260,2012-02-09 16:35:00
11:55 AM,37.4,12.2,36,29.97,10.0,West,10.4,-,N/A,,Clear,280,2012-02-09 16:55:00
12:15 PM,37.4,12.2,36,29.96,10.0,WSW,9.2,-,N/A,,Clear,240,2012-02-09 17:15:00
12:35 PM,37.4,12.2,36,29.95,10.0,WSW,8.1,-,N/A,,Clear,250,2012-02-09 17:35:00
12:55 PM,37.4,12.2,36,29.94,10.0,West,8.1,17.3,N/A,,Clear,270,2012-02-09 17:55:00
1:15 PM,39.2,12.2,33,29.94,10.0,West,9.2,16.1,N/A,,Clear,280,2012-02-09 18:15:00
1:35 PM,39.2,12.2,33,29.93,10.0,West,10.4,21.9,N/A,,Clear,270,2012-02-09 18:35:00
2:15 PM,39.2,12.2,33,29.93,10.0,WSW,10.4,19.6,N/A,,Clear,250,2012-02-09 19:15:00
2:35 PM,41.0,12.2,31,29.93,10.0,West,9.2,17.3,N/A,,Clear,260,2012-02-09 19:35:00
2:55 PM,41.0,12.2,31,29.94,10.0,WSW,8.1,-,N/A,,Clear,250,2012-02-09 19:55:00
3:15 PM,41.0,12.2,31,29.94,10.0,West,11.5,-,N/A,,Clear,260,2012-02-09 20:15:00
3:35 PM,41.0,12.2,31,29.94,10.0,WSW,5.8,-,N/A,,Clear,250,2012-02-09 20:35:00
3:55 PM,41.0,12.2,31,29.95,10.0,West,6.9,-,N/A,,Clear,280,2012-02-09 20:55:00
4:15 PM,41.0,12.2,31,29.96,10.0,West,8.1,-,N/A,,Clear,260,2012-02-09 21:15:00
4:55 PM,39.2,12.2,33,29.96,10.0,West,5.8,-,N/A,,Clear,270,2012-02-09 21:55:00
5:15 PM,37.4,12.2,36,29.97,10.0,West,8.1,-,N/A,,Clear,260,2012-02-09 22:15:00
5:35 PM,35.6,12.2,38,29.98,10.0,WSW,8.1,-,N/A,,Clear,240,2012-02-09 22:35:00
5:55 PM,35.6,15.8,44,29.98,10.0,WSW,6.9,-,N/A,,Clear,240,2012-02-09 22:55:00
6:15 PM,33.8,14.0,44,29.99,10.0,WSW,6.9,-,N/A,,Clear,250,2012-02-09 23:15:00
6:35 PM,33.8,14.0,44,29.99,10.0,WSW,5.8,-,N/A,,Clear,250,2012-02-09 23:35:00
6:55 PM,33.8,14.0,44,30.00,10.0,WSW,5.8,-,N/A,,Clear,250,2012-02-09 23:55:00
7:35 PM,32.0,15.8,51,30.00,10.0,WSW,4.6,-,N/A,,Clear,240,2012-02-10 00:35:00
7:55 PM,30.2,15.8,55,30.00,10.0,WSW,5.8,-,N/A,,Clear,250,2012-02-10 00:55:00
8:15 PM,28.4,15.8,59,30.00,10.0,Calm,Calm,-,N/A,,Clear,0,2012-02-10 01:15:00
8:35 PM,30.2,15.8,55,30.01,10.0,WSW,5.8,-,N/A,,Clear,250,2012-02-10 01:35:00
8:55 PM,30.2,15.8,55,30.01,10.0,West,3.5,-,N/A,,Clear,260,2012-02-10 01:55:00
9:15 PM,28.4,15.8,59,30.02,10.0,WSW,3.5,-,N/A,,Clear,250,2012-02-10 02:15:00
9:55 PM,30.2,15.8,55,30.03,10.0,WSW,8.1,-,N/A,,Clear,250,2012-02-10 02:55:00
10:15 PM,30.2,15.8,55,30.03,10.0,WSW,5.8,-,N/A,,Clear,240,2012-02-10 03:15:00
10:35 PM,30.2,15.8,55,30.03,10.0,SW,6.9,-,N/A,,Clear,230,2012-02-10 03:35:00
10:55 PM,26.6,14.0,59,30.03,10.0,WSW,5.8,-,N/A,,Clear,250,2012-02-10 03:55:00
11:15 PM,30.2,15.8,55,30.03,10.0,WSW,5.8,-,N/A,,Clear,250,2012-02-10 04:15:00
11:35 PM,30.2,15.8,55,30.03,10.0,WSW,5.8,-,N/A,,Clear,240,2012-02-10 04:35:00